Tracking 25963 objects as of 13-Aug-2022
HD Live streaming from Space Station
objects crossing your sky now

STARLINK-4075

Track STARLINK-4075 now!
10-day predictions
STARLINK-4075 is classified as:


NORAD ID: 52670
Int'l Code: 2022-053Q
Perigee: 545.4 km
Apogee: 548.4 km
Inclination: 53.2 °
Period: 95.4 minutes
Semi major axis: 6917 km
RCS: Unknown
Launch date: May 18, 2022
Source: United States (US)
Launch site: AIR FORCE EASTERN TEST RANGE (AFETR)
aabbcc
Your satellite tracking list
Your tracking list is empty




NASA's NSSDC Master Catalog

Two Line Element Set (TLE):
1 52670U 22053Q   22224.58334491  .00027418  00000-0  17342-2 0  9992
2 52670  53.2171 252.9684 0002177  43.2032 221.7502 15.08837832  1306
Source of the keplerian elements: AFSPC